Altus, OK

4:56 AM CDT on August 27, 2016 (GMT -0500)
Altus Air Force Base

Weather History for KLTS - November, 2011

Change the Weather History Date:

Friday, November 25, 2011

  Actual Average Record
Temperature  
Mean Temperature 54 °F -  
Max Temperature 61 °F 55 °F 75 °F (1997)
Min Temperature 48 °F 34 °F 23 °F (1996)
Degree Days  
Heating Degree Days 10    
Growing Degree Days 4 (Base 50)    
Moisture  
Dew Point 54 °F    
Average Humidity 92    
Maximum Humidity 100    
Minimum Humidity 77    
Precipitation  
Precipitation 0.06 in - - ()
Sea Level Pressure  
Sea Level Pressure 29.86 in    
Wind  
Wind Speed 13 mph (SSE)    
Max Wind Speed 26 mph    
Max Gust Speed 32 mph    
Visibility 9 miles    
Events Rain    
Averages and records for this station are not official NWS values.
T = Trace of Precipitation, MM = Missing Value Source: NWS Daily Summary

Daily Weather History Graph

Daily Weather History Graph

Search for Another Location

Airport or City:

Trip Planner

Search our weather history database for the weather conditions in past years. The results will help you decide how hot, cold, wet, or windy it might be!

Date:

Astronomy

Nov. 25, 2011 Rise Set
Actual Time 7:20 AM CST 5:27 PM CST
Civil Twilight 6:52 AM CST 5:54 PM CST
Nautical Twilight 6:22 AM CST 6:25 PM CST
Astronomical Twilight 5:51 AM CST 6:56 PM CST
Moon 7:47 AM CST (11/25) 5:59 PM CST (11/25)
Length of Visible Light 11h 02m
Length of Day
10h 07m
New Moon, 0% of the Moon is Illuminated
Nov 25
New Moon
Dec 2
First Quarter
Dec 10
Full
Dec 17
Last Quarter
Dec 24
New

Hourly Weather History & Observations

Time (CST) Temp. Dew Point Humidity Pressure Visibility Wind Dir Wind Speed Gust Speed Precip Events Conditions
12:55 AM 51.1 °F 50.7 °F 99% 30.00 in 10.0 mi SE 10.4 mph - N/A   Clear
1:55 AM 51.3 °F 50.9 °F 99% 29.99 in 10.0 mi SE 11.5 mph - N/A   Clear
2:55 AM 50.7 °F 50.4 °F 99% 29.98 in 10.0 mi SE 10.4 mph - N/A   Clear
4:00 AM 50.0 °F 50.0 °F 100% 29.96 in 9.0 mi SE 13.8 mph - N/A   Clear
4:14 AM 50.0 °F 50.0 °F 100% 29.96 in 9.0 mi SE 11.5 mph - N/A   Clear
4:24 AM 50.0 °F 50.0 °F 100% 29.95 in 9.0 mi SE 12.7 mph - N/A   Clear
4:55 AM 49.6 °F 49.5 °F 99% 29.96 in 9.0 mi SE 8.1 mph - N/A   Clear
5:03 AM 50.0 °F 48.2 °F 94% 29.96 in 7.0 mi SSE 8.1 mph - N/A   Clear
5:14 AM 48.2 °F 48.2 °F 100% 29.96 in 7.0 mi SSE 9.2 mph - N/A   Clear
5:29 AM 48.2 °F 48.2 °F 100% 29.97 in 6.0 mi SSE 9.2 mph - N/A   Clear
5:40 AM 48.2 °F 48.2 °F 100% 29.97 in 6.0 mi SE 5.8 mph - N/A   Clear
5:55 AM 48.0 °F 48.0 °F 100% 29.96 in 5.0 mi SE 6.9 mph - N/A   Clear
6:43 AM 48.2 °F 48.2 °F 100% 29.96 in 5.0 mi SE 10.4 mph - N/A   Partly Cloudy
6:55 AM 48.6 °F 48.6 °F 100% 29.96 in 4.0 mi SE 11.5 mph - N/A   Scattered Clouds
7:00 AM 48.2 °F 48.2 °F 100% 29.96 in 4.0 mi SE 10.4 mph - N/A   Mostly Cloudy
7:16 AM 50.0 °F 50.0 °F 100% 29.96 in 4.0 mi SSE 10.4 mph - N/A   Overcast
7:55 AM 49.3 °F 49.3 °F 100% 29.96 in 3.0 mi SSE 11.5 mph - N/A   Overcast
8:02 AM 50.0 °F 50.0 °F 100% 29.95 in 4.0 mi SSE 13.8 mph - N/A   Scattered Clouds
8:55 AM 54.0 °F 53.6 °F 99% 29.95 in 10.0 mi SSE 18.4 mph 25.3 mph N/A   Clear
9:18 AM 55.4 °F 53.6 °F 94% 29.94 in 10.0 mi SSE 21.9 mph 29.9 mph N/A   Mostly Cloudy
9:55 AM 56.3 °F 53.8 °F 91% 29.93 in 10.0 mi SSE 19.6 mph 27.6 mph N/A   Mostly Cloudy
10:00 AM 57.2 °F 53.6 °F 88% 29.93 in 10.0 mi South 20.7 mph 27.6 mph N/A   Mostly Cloudy
10:07 AM 57.2 °F 53.6 °F 88% 29.93 in 10.0 mi South 23.0 mph 32.2 mph N/A   Scattered Clouds
10:26 AM 57.2 °F 53.6 °F 88% 29.92 in 10.0 mi South 20.7 mph 29.9 mph N/A   Mostly Cloudy
10:34 AM 59.0 °F 53.6 °F 82% 29.91 in 10.0 mi South 26.5 mph 32.2 mph N/A   Mostly Cloudy
10:38 AM 59.0 °F 53.6 °F 82% 29.91 in 10.0 mi South 24.2 mph 32.2 mph N/A   Mostly Cloudy
10:46 AM 59.0 °F 53.6 °F 82% 29.90 in 10.0 mi South 21.9 mph 31.1 mph N/A   Overcast
10:55 AM 58.8 °F 53.6 °F 83% 29.90 in 10.0 mi South 23.0 mph 31.1 mph N/A   Overcast
11:08 AM 59.0 °F 53.6 °F 82% 29.90 in 10.0 mi South 23.0 mph 29.9 mph N/A   Overcast
11:16 AM 59.0 °F 53.6 °F 82% 29.90 in 10.0 mi South 23.0 mph 27.6 mph N/A   Overcast
11:55 AM 58.6 °F 53.2 °F 82% 29.89 in 10.0 mi South 19.6 mph 26.5 mph N/A   Overcast
12:55 PM 59.0 °F 53.6 °F 82% 29.86 in 10.0 mi South 13.8 mph - N/A   Overcast
1:55 PM 59.0 °F 53.6 °F 82% 29.84 in 10.0 mi South 16.1 mph - N/A   Overcast
2:06 PM 59.0 °F 53.6 °F 82% 29.83 in 10.0 mi South 12.7 mph - N/A   Overcast
2:34 PM 60.8 °F 53.6 °F 77% 29.81 in 10.0 mi SSE 12.7 mph - N/A   Overcast
2:55 PM 60.6 °F 54.5 °F 80% 29.80 in 10.0 mi SSE 15.0 mph - N/A   Mostly Cloudy
3:00 PM 60.8 °F 55.4 °F 82% 29.80 in 10.0 mi SSE 15.0 mph - N/A   Scattered Clouds
3:55 PM 61.3 °F 54.9 °F 79% 29.80 in 10.0 mi South 16.1 mph - N/A   Scattered Clouds
4:09 PM 60.8 °F 55.4 °F 82% 29.80 in 10.0 mi SSE 10.4 mph - N/A   Mostly Cloudy
4:18 PM 60.8 °F 55.4 °F 82% 29.80 in 10.0 mi South 15.0 mph - N/A   Mostly Cloudy
4:55 PM 61.0 °F 55.0 °F 81% 29.80 in 10.0 mi SSE 11.5 mph - N/A   Partly Cloudy
5:10 PM 60.8 °F 55.4 °F 82% 29.79 in 10.0 mi SE 8.1 mph - N/A   Light Drizzle
5:19 PM 59.0 °F 55.4 °F 88% 29.78 in 10.0 mi SE 9.2 mph - N/A   Mostly Cloudy
5:55 PM 59.7 °F 55.6 °F 86% 29.79 in 10.0 mi SE 11.5 mph - 0.00 in   Mostly Cloudy
6:01 PM 59.0 °F 55.4 °F 88% 29.79 in 10.0 mi SE 10.4 mph - N/A   Mostly Cloudy
6:13 PM 59.0 °F 55.4 °F 88% 29.79 in 10.0 mi SE 10.4 mph - N/A   Overcast
6:22 PM 59.0 °F 55.4 °F 88% 29.78 in 10.0 mi SE 11.5 mph - N/A   Mostly Cloudy
6:23 PM 59.0 °F 55.4 °F 88% 29.78 in 10.0 mi SE 12.7 mph - N/A   Light Drizzle
6:36 PM 59.0 °F 55.4 °F 88% 29.78 in 10.0 mi SSE 12.7 mph - N/A   Partly Cloudy
6:46 PM 59.0 °F 57.2 °F 94% 29.79 in 10.0 mi SSE 12.7 mph - N/A Rain Light Rain
6:55 PM 58.8 °F 56.5 °F 92% 29.79 in 9.0 mi SSE 13.8 mph - 0.00 in Rain Light Rain
7:17 PM 59.0 °F 57.2 °F 94% 29.78 in 8.0 mi SSE 12.7 mph - N/A Rain Light Rain
7:20 PM 59.0 °F 57.2 °F 94% 29.78 in 9.0 mi SSE 11.5 mph - N/A Rain Light Rain
7:40 PM 59.0 °F 57.2 °F 94% 29.77 in 9.0 mi SE 10.4 mph - N/A Rain Light Rain
7:55 PM 57.9 °F 57.6 °F 99% 29.78 in 10.0 mi SSE 10.4 mph - 0.06 in Rain Light Rain
8:00 PM 57.2 °F 57.2 °F 100% 29.78 in 10.0 mi SE 9.2 mph - N/A   Mostly Cloudy
8:11 PM 57.2 °F 57.2 °F 100% 29.78 in 10.0 mi SE 9.2 mph - N/A   Mostly Cloudy
8:21 PM 57.2 °F 57.2 °F 100% 29.78 in 10.0 mi SE 9.2 mph - N/A   Mostly Cloudy
9:12 PM 57.2 °F 57.2 °F 100% 29.77 in 10.0 mi SSE 12.7 mph - N/A   Mostly Cloudy
9:55 PM 58.1 °F 57.7 °F 99% 29.76 in 10.0 mi SSE 13.8 mph - N/A   Mostly Cloudy
10:04 PM 59.0 °F 57.2 °F 94% 29.75 in 10.0 mi SSE 11.5 mph - N/A   Mostly Cloudy
10:55 PM 57.9 °F 57.6 °F 99% 29.75 in 10.0 mi SSE 9.2 mph - N/A   Overcast
11:20 PM 57.2 °F 57.2 °F 100% 29.74 in 10.0 mi SSE 8.1 mph - N/A   Scattered Clouds
11:55 PM 56.5 °F 56.5 °F 100% 29.73 in 10.0 mi SSE 9.2 mph - N/A   Partly Cloudy